Location: Wawayanda State Park
(41.1833°N, 74.4333°W)
Time: 07:47:06
(UTC-04:00)

Landsat 7 - Visible Passes

Search period start: 25 March 2017 00:00
Search period end: 04 April 2017 00:00
Orbit: 702 x 703 km, 98.2° (Epoch: 23 March)

Date Brightness Start Highest point End Pass type
(mag) Time Alt. Az. Time Alt. Az. Time Alt. Az.
25 Mar 6.1 22:44:44 19° NNW 22:44:44 19° NNW 22:46:06 10° NNW visible
26 Mar 5.9 21:49:01 17° NNE 21:49:01 17° NNE 21:50:28 10° NNE visible
26 Mar 6.7 23:27:54 13° NW 23:27:54 13° NW 23:28:31 10° NNW visible
27 Mar 5.9 22:32:11 22° N 22:32:11 22° N 22:33:51 10° N visible
28 Mar 5.9 21:36:28 16° NE 21:36:28 16° NE 21:37:54 10° NNE visible
28 Mar 6.4 23:15:20 17° NNW 23:15:20 17° NNW 23:16:30 10° NNW visible
29 Mar 5.7 22:19:38 23° N 22:19:38 23° N 22:21:33 10° N visible
30 Mar 6.0 21:23:55 13° NE 21:23:55 13° NE 21:25:10 10° NNE visible
30 Mar 6.1 23:02:47 21° NNW 23:02:47 21° NNW 23:04:24 10° NNW visible
31 Mar 5.6 22:07:05 23° NNE 22:07:05 23° NNE 22:09:12 10° N visible
31 Mar 6.8 23:45:57 12° NW 23:45:57 12° NW 23:46:25 10° NW visible
01 Apr 6.1 21:11:22 11° NE 21:11:22 11° NE 21:12:03 10° NE visible
01 Apr 5.8 22:50:14 25° NNW 22:50:14 25° NNW 22:52:15 10° NNW visible
02 Apr 5.5 21:54:32 22° NNE 21:54:32 22° NNE 21:56:46 10° N visible
02 Apr 6.5 23:33:25 16° NW 23:33:25 16° NW 23:34:33 10° NW visible
03 Apr 5.5 22:37:42 29° N 22:37:42 29° N 22:40:02 10° N visible
